Regional Weather Roundup
Issued by NWS

Home | Current Version | Previous Version | Text Only | Print | Product List | Glossary Off
Versions: 1 2 3 4 5 6 7 8 9 10 11 12 13 14 15 16 17 18 19 20 21 22 23 24 25 26 27 28 29 30 31 32 33 34 35 36 37 38 39 40 41 42 43 44 45 46 47 48 49 50

000
ASUS43 KLMK 241502
RWRKY
KENTUCKY REGIONAL WEATHER ROUNDUP
NATIONAL WEATHER SERVICE LOUISVILLE KY
1100 AM EDT WED MAY 24 2017

NOTE "FAIR" INDICATES FEW OR NO CLOUDS BELOW 12,000 FEET
WITH NO SIGNIFICANT WEATHER AND/OR OBSTRUCTIONS TO VISIBILITY.

KYZ001>023-026-027-061>063-070>075-241600-
WESTERN AND SOUTH CENTRAL KENTUCKY

CITY           SKY/WX    TMP DP  RH WIND       PRES   REMARKS
PADUCAH        LGT RAIN  61  56  83 NW5       29.53S
HENDERSON      HVY RAIN  58  57  97 N8        29.51S
OWENSBORO      RAIN      59  57  93 NE8       29.49F FOG
HOPKINSVILLE   DRIZZLE   60  60 100 N8        29.46F
BOWLING GREEN  LGT RAIN  62  60  93 N5        29.47F
GLASGOW        NOT AVBL
$$

KYZ024-025-028>034-038-045-046-053-241600-
NORTH CENTRAL KENTUCKY

CITY           SKY/WX    TMP DP  RH WIND       PRES   REMARKS
LOUISVILLE/SDF LGT RAIN  63  58  83 NW6       29.49F
LOUISVILLE/LOU LGT RAIN  63  60  90 NW5       29.50F
FORT KNOX      LGT RAIN  59  57  95 NW6       29.48F
$$

KYZ035>037-039>044-047>052-055>060-089>105-241600-
NORTHEAST KENTUCKY

CITY           SKY/WX    TMP DP  RH WIND       PRES   REMARKS
LEXINGTON      RAIN      63  59  87 SE6       29.51F
COVINGTON      LGT RAIN  63  60  90 SE7       29.51F
FRANKFORT      CLOUDY    64  59  83 SE3       29.50S
$$

KYZ054-064>069-076>088-106>120-241600-
SOUTHEAST KENTUCKY

CITY           SKY/WX    TMP DP  RH WIND       PRES   REMARKS
JACKSON        LGT RAIN  62  59  90 CALM      29.54F
LONDON         LGT RAIN  61  59  93 CALM      29.52F FOG
SOMERSET       RAIN      59  59 100 CALM      29.52F
MIDDLESBORO    TSTM      61  61 100 CALM      29.51F
MONTICELLO     HVY RAIN  60  58  92 VRB3      29.51F FOG
$$




USA.gov is the U.S. government's official web portal to all federal, state and local government web resources and services.